Year,Month,Day,Hour,Minute,Value (Times are PST for windgust in km/hr)
2015,12,13,00,00,1.60
2015,12,13,00,01,1.60
2015,12,13,00,02,4.80
2015,12,13,00,03,1.60
2015,12,13,00,05,4.80
2015,12,13,00,06,6.40
2015,12,13,00,07,1.60
2015,12,13,00,09,3.20
2015,12,13,00,10,3.20
2015,12,13,00,11,1.60
2015,12,13,00,12,3.20
2015,12,13,00,13,1.60
2015,12,13,00,14,1.60
2015,12,13,00,18,1.60
2015,12,13,00,19,1.60
2015,12,13,00,20,3.20
2015,12,13,00,21,4.80
2015,12,13,00,22,3.20
2015,12,13,00,23,1.60
2015,12,13,00,24,1.60
2015,12,13,00,25,4.80
2015,12,13,00,26,3.20
2015,12,13,00,27,3.20
2015,12,13,00,28,6.40
2015,12,13,00,29,6.40
2015,12,13,00,30,8.10
2015,12,13,00,31,4.80
2015,12,13,00,32,4.80
2015,12,13,00,33,6.40
2015,12,13,00,34,8.10
2015,12,13,00,35,4.80
2015,12,13,00,36,6.40
2015,12,13,00,37,6.40
2015,12,13,00,38,8.10
2015,12,13,00,39,6.40
2015,12,13,00,40,8.10
2015,12,13,00,41,8.10
2015,12,13,00,42,9.60
2015,12,13,00,43,9.60
2015,12,13,00,44,9.60
2015,12,13,00,45,6.40
2015,12,13,00,46,6.40
2015,12,13,00,47,6.40
2015,12,13,00,48,8.10
2015,12,13,00,49,6.40
2015,12,13,00,50,8.10
2015,12,13,00,51,6.40
2015,12,13,00,52,6.40
2015,12,13,00,53,6.40
2015,12,13,00,54,6.40
2015,12,13,00,55,6.40
2015,12,13,00,56,6.40
2015,12,13,00,57,8.10
2015,12,13,00,58,6.40
2015,12,13,00,59,4.80
2015,12,13,01,00,4.80
2015,12,13,01,01,4.80
2015,12,13,01,02,4.80
2015,12,13,01,03,4.80
2015,12,13,01,04,6.40
2015,12,13,01,05,4.80
2015,12,13,01,06,4.80
2015,12,13,01,07,6.40
2015,12,13,01,08,4.80
2015,12,13,01,09,4.80
2015,12,13,01,10,8.10
2015,12,13,01,11,6.40
2015,12,13,01,12,9.60
2015,12,13,01,13,4.80
2015,12,13,01,14,4.80
2015,12,13,01,15,6.40
2015,12,13,01,16,4.80
2015,12,13,01,17,4.80
2015,12,13,01,18,11.30
2015,12,13,01,19,6.40
2015,12,13,01,20,9.60
2015,12,13,01,21,6.40
2015,12,13,01,22,6.40
2015,12,13,01,23,3.20
2015,12,13,01,24,6.40
2015,12,13,01,25,11.30
2015,12,13,01,26,4.80
2015,12,13,01,27,6.40
2015,12,13,01,28,6.40
2015,12,13,01,29,6.40
2015,12,13,01,30,8.10
2015,12,13,01,31,9.60
2015,12,13,01,32,8.10
2015,12,13,01,33,9.60
2015,12,13,01,34,6.40
2015,12,13,01,35,8.10
2015,12,13,01,36,8.10
2015,12,13,01,37,4.80
2015,12,13,01,38,8.10
2015,12,13,01,39,8.10
2015,12,13,01,40,8.10
2015,12,13,01,41,6.40
2015,12,13,01,42,8.10
2015,12,13,01,43,6.40
2015,12,13,01,44,9.60
2015,12,13,01,45,9.60
2015,12,13,01,46,12.90
2015,12,13,01,47,8.10
2015,12,13,01,48,9.60
2015,12,13,01,49,9.60
2015,12,13,01,50,8.10
2015,12,13,01,51,8.10
2015,12,13,01,52,12.90
2015,12,13,01,53,16.10
2015,12,13,01,54,12.90
2015,12,13,01,55,8.10
2015,12,13,01,56,11.30
2015,12,13,01,57,12.90
2015,12,13,01,58,9.60
2015,12,13,01,59,9.60
2015,12,13,02,00,9.60
2015,12,13,02,01,12.90
2015,12,13,02,02,12.90
2015,12,13,02,03,9.60
2015,12,13,02,04,8.10
2015,12,13,02,05,12.90
2015,12,13,02,06,6.40
2015,12,13,02,07,9.60
2015,12,13,02,08,16.10
2015,12,13,02,09,11.30
2015,12,13,02,10,9.60
2015,12,13,02,11,8.10
2015,12,13,02,12,9.60
2015,12,13,02,13,12.90
2015,12,13,02,14,14.50
2015,12,13,02,15,9.60
2015,12,13,02,16,14.50
2015,12,13,02,17,12.90
2015,12,13,02,18,14.50
2015,12,13,02,19,12.90
2015,12,13,02,20,12.90
2015,12,13,02,21,8.10
2015,12,13,02,22,8.10
2015,12,13,02,23,14.50
2015,12,13,02,24,14.50
2015,12,13,02,25,12.90
2015,12,13,02,26,11.30
2015,12,13,02,27,9.60
2015,12,13,02,28,11.30
2015,12,13,02,29,14.50
2015,12,13,02,30,14.50
2015,12,13,02,31,9.60
2015,12,13,02,32,17.70
2015,12,13,02,33,6.40
2015,12,13,02,34,8.10
2015,12,13,02,35,11.30
2015,12,13,02,36,9.60
2015,12,13,02,37,8.10
2015,12,13,02,38,6.40
2015,12,13,02,39,8.10
2015,12,13,02,40,11.30
2015,12,13,02,41,11.30
2015,12,13,02,42,9.60
2015,12,13,02,43,12.90
2015,12,13,02,44,6.40
2015,12,13,02,45,6.40
2015,12,13,02,46,9.60
2015,12,13,02,47,6.40
2015,12,13,02,48,9.60
2015,12,13,02,49,12.90
2015,12,13,02,50,6.40
2015,12,13,02,51,8.10
2015,12,13,02,52,12.90
2015,12,13,02,53,8.10
2015,12,13,02,54,14.50
2015,12,13,02,55,11.30
2015,12,13,02,56,9.60
2015,12,13,02,57,12.90
2015,12,13,02,58,16.10
2015,12,13,02,59,12.90
2015,12,13,03,00,9.60
2015,12,13,03,01,12.90
2015,12,13,03,02,8.10
2015,12,13,03,03,14.50
2015,12,13,03,04,4.80
2015,12,13,03,05,3.20
2015,12,13,03,06,8.10
2015,12,13,03,07,4.80
2015,12,13,03,08,12.90
2015,12,13,03,09,12.90
2015,12,13,03,10,6.40
2015,12,13,03,11,9.60
2015,12,13,03,12,6.40
2015,12,13,03,13,6.40
2015,12,13,03,14,4.80
2015,12,13,03,15,4.80
2015,12,13,03,16,6.40
2015,12,13,03,17,4.80
2015,12,13,03,18,6.40
2015,12,13,03,19,6.40
2015,12,13,03,20,4.80
2015,12,13,03,21,4.80
2015,12,13,03,22,6.40
2015,12,13,03,23,4.80
2015,12,13,03,24,9.60
2015,12,13,03,25,6.40
2015,12,13,03,26,4.80
2015,12,13,03,27,1.60
2015,12,13,03,28,1.60
2015,12,13,03,29,4.80
2015,12,13,03,30,8.10
2015,12,13,03,31,4.80
2015,12,13,03,32,4.80
2015,12,13,03,33,4.80
2015,12,13,03,34,8.10
2015,12,13,03,35,3.20
2015,12,13,03,36,4.80
2015,12,13,03,37,6.40
2015,12,13,03,38,6.40
2015,12,13,03,39,8.10
2015,12,13,03,40,6.40
2015,12,13,03,41,4.80
2015,12,13,03,42,6.40
2015,12,13,03,43,4.80
2015,12,13,03,44,6.40
2015,12,13,03,45,6.40
2015,12,13,03,46,9.60
2015,12,13,03,47,8.10
2015,12,13,03,48,14.50
2015,12,13,03,49,6.40
2015,12,13,03,50,9.60
2015,12,13,03,51,4.80
2015,12,13,03,52,6.40
2015,12,13,03,53,8.10
2015,12,13,03,54,9.60
2015,12,13,03,55,6.40
2015,12,13,03,56,9.60
2015,12,13,03,57,12.90
2015,12,13,03,58,6.40
2015,12,13,03,59,4.80
2015,12,13,04,00,6.40
2015,12,13,04,01,6.40
2015,12,13,04,02,3.20
2015,12,13,04,03,9.60
2015,12,13,04,04,12.90
2015,12,13,04,05,6.40
2015,12,13,04,06,12.90
2015,12,13,04,07,8.10
2015,12,13,04,08,8.10
2015,12,13,04,09,11.30
2015,12,13,04,10,9.60
2015,12,13,04,11,8.10
2015,12,13,04,12,8.10
2015,12,13,04,13,9.60
2015,12,13,04,14,11.30
2015,12,13,04,15,12.90
2015,12,13,04,16,6.40
2015,12,13,04,17,9.60
2015,12,13,04,18,8.10
2015,12,13,04,19,16.10
2015,12,13,04,20,16.10
2015,12,13,04,21,11.30
2015,12,13,04,22,16.10
2015,12,13,04,23,12.90
2015,12,13,04,24,14.50
2015,12,13,04,25,14.50
2015,12,13,04,26,12.90
2015,12,13,04,27,9.60
2015,12,13,04,28,9.60
2015,12,13,04,29,6.40
2015,12,13,04,30,17.70
2015,12,13,04,31,17.70
2015,12,13,04,32,12.90
2015,12,13,04,33,16.10
2015,12,13,04,34,12.90
2015,12,13,04,35,12.90
2015,12,13,04,36,17.70
2015,12,13,04,37,12.90
2015,12,13,04,38,17.70
2015,12,13,04,39,12.90
2015,12,13,04,40,8.10
2015,12,13,04,41,17.70
2015,12,13,04,42,8.10
2015,12,13,04,43,12.90
2015,12,13,04,44,14.50
2015,12,13,04,45,12.90
2015,12,13,04,46,9.60
2015,12,13,04,47,11.30
2015,12,13,04,48,11.30
2015,12,13,04,49,6.40
2015,12,13,04,50,17.70
2015,12,13,04,51,11.30
2015,12,13,04,52,8.10
2015,12,13,04,53,16.10
2015,12,13,04,54,19.30
2015,12,13,04,55,12.90
2015,12,13,04,56,16.10
2015,12,13,04,57,9.60
2015,12,13,04,58,6.40
2015,12,13,04,59,8.10
2015,12,13,05,00,8.10
2015,12,13,05,01,8.10
2015,12,13,05,02,14.50
2015,12,13,05,03,14.50
2015,12,13,05,04,6.40
2015,12,13,05,05,12.90
2015,12,13,05,06,12.90
2015,12,13,05,07,11.30
2015,12,13,05,08,12.90
2015,12,13,05,09,6.40
2015,12,13,05,10,9.60
2015,12,13,05,11,4.80
2015,12,13,05,12,8.10
2015,12,13,05,13,9.60
2015,12,13,05,14,17.70
2015,12,13,05,15,12.90
2015,12,13,05,16,12.90
2015,12,13,05,17,4.80
2015,12,13,05,18,16.10
2015,12,13,05,19,11.30
2015,12,13,05,20,9.60
2015,12,13,05,21,19.30
2015,12,13,05,22,12.90
2015,12,13,05,23,14.50
2015,12,13,05,24,9.60
2015,12,13,05,25,8.10
2015,12,13,05,26,4.80
2015,12,13,05,27,8.10
2015,12,13,05,28,9.60
2015,12,13,05,29,6.40
2015,12,13,05,30,12.90
2015,12,13,05,31,9.60
2015,12,13,05,32,6.40
2015,12,13,05,33,9.60
2015,12,13,05,34,6.40
2015,12,13,05,35,4.80
2015,12,13,05,36,4.80
2015,12,13,05,37,4.80
2015,12,13,05,38,3.20
2015,12,13,05,39,6.40
2015,12,13,05,40,9.60
2015,12,13,05,41,8.10
2015,12,13,05,42,4.80
2015,12,13,05,43,4.80
2015,12,13,05,44,3.20
2015,12,13,05,45,4.80
2015,12,13,05,46,4.80
2015,12,13,05,47,6.40
2015,12,13,05,48,6.40
2015,12,13,05,49,4.80
2015,12,13,05,50,4.80
2015,12,13,05,51,6.40
2015,12,13,05,52,12.90
2015,12,13,05,53,12.90
2015,12,13,05,54,9.60
2015,12,13,05,55,8.10
2015,12,13,05,56,8.10
2015,12,13,05,57,6.40
2015,12,13,05,58,6.40
2015,12,13,05,59,4.80
2015,12,13,06,00,6.40
2015,12,13,06,01,6.40
2015,12,13,06,02,4.80
2015,12,13,06,03,6.40
2015,12,13,06,04,8.10
2015,12,13,06,05,6.40
2015,12,13,06,06,6.40
2015,12,13,06,07,3.20
2015,12,13,06,08,1.60
2015,12,13,06,09,1.60
2015,12,13,06,10,4.80
2015,12,13,06,11,3.20
2015,12,13,06,12,6.40
2015,12,13,06,13,4.80
2015,12,13,06,14,1.60
2015,12,13,06,15,8.10
2015,12,13,06,16,4.80
2015,12,13,06,17,4.80
2015,12,13,06,18,4.80
2015,12,13,06,19,4.80
2015,12,13,06,23,4.80
2015,12,13,06,24,6.40
2015,12,13,06,25,4.80
2015,12,13,06,26,6.40
2015,12,13,06,27,4.80
2015,12,13,06,28,3.20
2015,12,13,06,29,1.60
2015,12,13,06,30,3.20
2015,12,13,06,31,3.20
2015,12,13,06,32,3.20
2015,12,13,06,33,3.20
2015,12,13,06,34,3.20
2015,12,13,06,35,6.40
2015,12,13,06,36,4.80
2015,12,13,06,37,6.40
2015,12,13,06,38,4.80
2015,12,13,06,39,3.20
2015,12,13,06,40,3.20
2015,12,13,06,41,4.80
2015,12,13,06,42,4.80
2015,12,13,06,43,3.20
2015,12,13,06,44,4.80
2015,12,13,06,45,4.80
2015,12,13,06,46,4.80
2015,12,13,06,47,1.60
2015,12,13,06,48,1.60
2015,12,13,06,49,3.20
2015,12,13,06,50,3.20
2015,12,13,06,51,3.20
2015,12,13,06,52,6.40
2015,12,13,06,53,6.40
2015,12,13,06,54,8.10
2015,12,13,06,55,6.40
2015,12,13,06,56,1.60
2015,12,13,06,57,3.20
2015,12,13,06,58,1.60
2015,12,13,07,00,8.10
2015,12,13,07,01,6.40
2015,12,13,07,02,3.20
2015,12,13,07,03,3.20
2015,12,13,07,04,3.20
2015,12,13,07,05,3.20
2015,12,13,07,06,3.20
2015,12,13,07,07,6.40
2015,12,13,07,08,4.80
2015,12,13,07,09,1.60
2015,12,13,07,10,3.20
2015,12,13,07,11,1.60
2015,12,13,07,12,3.20
2015,12,13,07,13,3.20
2015,12,13,07,14,1.60
2015,12,13,07,15,1.60
2015,12,13,07,16,1.60
2015,12,13,07,17,3.20
2015,12,13,07,18,3.20
2015,12,13,07,19,4.80
2015,12,13,07,20,4.80
2015,12,13,07,21,4.80
2015,12,13,07,22,4.80
2015,12,13,07,23,3.20
2015,12,13,07,24,4.80
2015,12,13,07,25,8.10
2015,12,13,07,26,12.90
2015,12,13,07,27,8.10
2015,12,13,07,28,8.10
2015,12,13,07,29,3.20
2015,12,13,07,30,9.60
2015,12,13,07,31,8.10
2015,12,13,07,32,12.90
2015,12,13,07,33,6.40
2015,12,13,07,34,12.90
2015,12,13,07,35,11.30
2015,12,13,07,36,9.60
2015,12,13,07,37,4.80
2015,12,13,07,38,9.60
2015,12,13,07,39,4.80
2015,12,13,07,40,4.80
2015,12,13,07,41,4.80
2015,12,13,07,42,14.50
2015,12,13,07,43,6.40
2015,12,13,07,44,11.30
2015,12,13,07,45,4.80
2015,12,13,07,46,1.60
2015,12,13,07,47,3.20
2015,12,13,07,48,3.20
2015,12,13,07,49,4.80
2015,12,13,07,50,1.60
2015,12,13,07,51,3.20
2015,12,13,07,52,3.20
2015,12,13,07,53,1.60
2015,12,13,08,01,6.40
2015,12,13,08,02,3.20
2015,12,13,08,03,1.60
2015,12,13,08,06,1.60
2015,12,13,08,07,1.60
2015,12,13,08,12,1.60
2015,12,13,08,13,1.60
2015,12,13,08,14,1.60
2015,12,13,08,15,1.60
2015,12,13,08,16,1.60
2015,12,13,08,17,1.60
2015,12,13,08,21,1.60
2015,12,13,08,22,1.60
2015,12,13,08,23,3.20
2015,12,13,08,24,3.20
2015,12,13,08,25,1.60
2015,12,13,08,26,1.60
2015,12,13,08,30,1.60
2015,12,13,08,32,1.60
2015,12,13,08,33,1.60
2015,12,13,08,34,3.20
2015,12,13,08,35,1.60
2015,12,13,08,36,1.60
2015,12,13,08,37,3.20
2015,12,13,08,38,3.20
2015,12,13,08,39,3.20
2015,12,13,08,40,3.20
2015,12,13,08,41,3.20
2015,12,13,08,42,3.20
2015,12,13,08,43,3.20
2015,12,13,08,44,1.60
2015,12,13,08,45,1.60
2015,12,13,08,46,1.60
2015,12,13,08,47,1.60
2015,12,13,08,48,3.20
2015,12,13,08,49,1.60
2015,12,13,08,50,1.60
2015,12,13,08,51,1.60
2015,12,13,08,52,1.60
2015,12,13,08,53,1.60
2015,12,13,08,54,1.60
2015,12,13,08,55,1.60
2015,12,13,08,56,1.60
2015,12,13,08,58,1.60
2015,12,13,08,59,1.60
2015,12,13,09,00,1.60
2015,12,13,09,03,3.20
2015,12,13,09,04,1.60
2015,12,13,09,05,1.60
2015,12,13,09,06,3.20
2015,12,13,09,07,1.60
2015,12,13,09,08,3.20
2015,12,13,09,09,1.60
2015,12,13,09,10,3.20
2015,12,13,09,11,1.60
2015,12,13,09,12,1.60
2015,12,13,09,14,3.20
2015,12,13,09,17,1.60
2015,12,13,09,18,1.60
2015,12,13,09,19,3.20
2015,12,13,09,20,1.60
2015,12,13,09,21,3.20
2015,12,13,09,22,3.20
2015,12,13,09,23,1.60
2015,12,13,09,24,1.60
2015,12,13,09,25,1.60
2015,12,13,09,26,1.60
2015,12,13,09,28,3.20
2015,12,13,09,29,3.20
2015,12,13,09,30,3.20
2015,12,13,09,31,1.60
2015,12,13,09,32,1.60
2015,12,13,09,33,3.20
2015,12,13,09,34,1.60
2015,12,13,09,35,1.60
2015,12,13,09,36,1.60
2015,12,13,09,37,1.60
2015,12,13,09,38,3.20
2015,12,13,09,39,1.60
2015,12,13,09,40,6.40
2015,12,13,09,41,4.80
2015,12,13,09,42,11.30
2015,12,13,09,43,11.30
2015,12,13,09,44,4.80
2015,12,13,09,45,3.20
2015,12,13,09,46,6.40
2015,12,13,09,47,6.40
2015,12,13,09,48,3.20
2015,12,13,09,49,1.60
2015,12,13,09,50,3.20
2015,12,13,09,51,1.60
2015,12,13,09,55,1.60
2015,12,13,09,56,3.20
2015,12,13,09,57,3.20
2015,12,13,09,58,1.60
2015,12,13,09,59,3.20
2015,12,13,10,00,4.80
2015,12,13,10,01,8.10
2015,12,13,10,02,4.80
2015,12,13,10,03,4.80
2015,12,13,10,04,3.20
2015,12,13,10,05,3.20
2015,12,13,10,06,3.20
2015,12,13,10,07,3.20
2015,12,13,10,08,3.20
2015,12,13,10,09,1.60
2015,12,13,10,10,3.20
2015,12,13,10,11,3.20
2015,12,13,10,12,4.80
2015,12,13,10,13,1.60
2015,12,13,10,14,1.60
2015,12,13,10,17,1.60
2015,12,13,10,18,3.20
2015,12,13,10,19,1.60
2015,12,13,10,30,1.60
2015,12,13,10,31,1.60
2015,12,13,10,32,3.20
2015,12,13,10,33,3.20
2015,12,13,10,34,3.20
2015,12,13,10,35,4.80
2015,12,13,10,36,1.60
2015,12,13,10,37,4.80
2015,12,13,10,38,6.40
2015,12,13,10,40,1.60
2015,12,13,10,41,3.20
2015,12,13,10,42,4.80
2015,12,13,10,43,3.20
2015,12,13,10,44,1.60
2015,12,13,10,45,1.60
2015,12,13,10,48,3.20
2015,12,13,10,49,1.60
2015,12,13,10,50,3.20
2015,12,13,10,51,4.80
2015,12,13,10,55,3.20
2015,12,13,10,56,4.80
2015,12,13,10,58,1.60
2015,12,13,10,59,1.60
2015,12,13,11,00,1.60
2015,12,13,11,16,3.20
2015,12,13,11,17,4.80
2015,12,13,11,18,3.20
2015,12,13,11,19,3.20
2015,12,13,11,20,3.20
2015,12,13,11,21,3.20
2015,12,13,11,22,3.20
2015,12,13,11,23,1.60
2015,12,13,11,25,1.60
2015,12,13,11,26,4.80
2015,12,13,11,27,4.80
2015,12,13,11,28,4.80
2015,12,13,11,29,3.20
2015,12,13,11,30,1.60
2015,12,13,11,33,3.20
2015,12,13,11,34,3.20
2015,12,13,11,35,1.60
2015,12,13,11,36,1.60
2015,12,13,11,37,4.80
2015,12,13,11,38,3.20
2015,12,13,11,39,3.20
2015,12,13,11,40,3.20
2015,12,13,11,41,3.20
2015,12,13,11,42,3.20
2015,12,13,11,43,3.20
2015,12,13,11,44,3.20
2015,12,13,11,45,3.20
2015,12,13,11,46,3.20
2015,12,13,11,47,4.80
2015,12,13,11,48,3.20
2015,12,13,11,49,3.20
2015,12,13,11,50,3.20
2015,12,13,11,51,4.80
2015,12,13,11,52,6.40
2015,12,13,11,53,6.40
2015,12,13,11,54,4.80
2015,12,13,11,55,1.60
2015,12,13,11,56,4.80
2015,12,13,11,57,4.80
2015,12,13,11,58,1.60
2015,12,13,11,59,1.60
2015,12,13,12,00,3.20
2015,12,13,12,01,6.40
2015,12,13,12,02,1.60
2015,12,13,12,03,3.20
2015,12,13,12,04,3.20
2015,12,13,12,05,6.40
2015,12,13,12,06,6.40
2015,12,13,12,07,4.80
2015,12,13,12,08,3.20
2015,12,13,12,09,3.20
2015,12,13,12,10,4.80
2015,12,13,12,11,4.80
2015,12,13,12,12,3.20
2015,12,13,12,13,3.20
2015,12,13,12,14,6.40
2015,12,13,12,15,8.10
2015,12,13,12,16,3.20
2015,12,13,12,17,6.40
2015,12,13,12,18,3.20
2015,12,13,12,19,4.80
2015,12,13,12,20,1.60
2015,12,13,12,21,3.20
2015,12,13,12,22,3.20
2015,12,13,12,23,1.60
2015,12,13,12,24,4.80
2015,12,13,12,25,4.80
2015,12,13,12,26,6.40
2015,12,13,12,27,6.40
2015,12,13,12,28,4.80
2015,12,13,12,29,1.60
2015,12,13,12,31,1.60
2015,12,13,12,32,3.20
2015,12,13,12,33,1.60
2015,12,13,12,34,1.60
2015,12,13,12,35,1.60
2015,12,13,12,36,3.20
2015,12,13,12,37,3.20
2015,12,13,12,38,4.80
2015,12,13,12,39,3.20
2015,12,13,12,43,1.60
2015,12,13,12,44,1.60
2015,12,13,12,45,3.20
2015,12,13,12,46,1.60
2015,12,13,12,47,3.20
2015,12,13,12,48,4.80
2015,12,13,12,49,8.10
2015,12,13,12,50,6.40
2015,12,13,12,51,3.20
2015,12,13,12,52,3.20
2015,12,13,12,53,3.20
2015,12,13,12,54,3.20
2015,12,13,12,56,1.60
2015,12,13,12,57,3.20
2015,12,13,12,58,3.20
2015,12,13,12,59,1.60
2015,12,13,13,00,1.60
2015,12,13,13,01,1.60
2015,12,13,13,02,1.60
2015,12,13,13,03,3.20
2015,12,13,13,04,1.60
2015,12,13,13,05,3.20
2015,12,13,13,06,1.60
2015,12,13,13,08,3.20
2015,12,13,13,09,1.60
2015,12,13,13,10,1.60
2015,12,13,13,13,1.60
2015,12,13,13,14,1.60
2015,12,13,13,15,1.60
2015,12,13,13,16,3.20
2015,12,13,13,17,4.80
2015,12,13,13,18,4.80
2015,12,13,13,19,4.80
2015,12,13,13,20,8.10
2015,12,13,13,21,11.30
2015,12,13,13,22,4.80
2015,12,13,13,23,3.20
2015,12,13,13,24,4.80
2015,12,13,13,25,6.40
2015,12,13,13,26,3.20
2015,12,13,13,27,1.60
2015,12,13,13,28,1.60
2015,12,13,13,29,4.80
2015,12,13,13,30,1.60
2015,12,13,13,31,3.20
2015,12,13,13,32,4.80
2015,12,13,13,33,3.20
2015,12,13,13,34,6.40
2015,12,13,13,35,6.40
2015,12,13,13,36,4.80
2015,12,13,13,37,3.20
2015,12,13,13,38,4.80
2015,12,13,13,39,1.60
2015,12,13,13,40,9.60
2015,12,13,13,41,16.10
2015,12,13,13,42,4.80
2015,12,13,13,43,3.20
2015,12,13,13,44,1.60
2015,12,13,13,45,3.20
2015,12,13,13,46,1.60
2015,12,13,13,47,1.60
2015,12,13,13,48,1.60
2015,12,13,13,49,4.80
2015,12,13,13,50,4.80
2015,12,13,13,51,4.80
2015,12,13,13,52,6.40
2015,12,13,13,53,6.40
2015,12,13,13,54,4.80
2015,12,13,13,55,3.20
2015,12,13,13,56,3.20
2015,12,13,13,57,4.80
2015,12,13,13,58,4.80
2015,12,13,13,59,6.40
2015,12,13,14,00,1.60
2015,12,13,14,01,4.80
2015,12,13,14,03,4.80
2015,12,13,14,04,1.60
2015,12,13,14,05,4.80
2015,12,13,14,06,4.80
2015,12,13,14,07,6.40
2015,12,13,14,08,4.80
2015,12,13,14,09,3.20
2015,12,13,14,12,1.60
2015,12,13,14,13,3.20
2015,12,13,14,14,3.20
2015,12,13,14,15,4.80
2015,12,13,14,16,3.20
2015,12,13,14,17,4.80
2015,12,13,14,18,3.20
2015,12,13,14,19,1.60
2015,12,13,14,20,1.60
2015,12,13,14,24,1.60
2015,12,13,14,25,3.20
2015,12,13,14,26,3.20
2015,12,13,14,27,1.60
2015,12,13,14,28,3.20
2015,12,13,14,29,4.80
2015,12,13,14,30,4.80
2015,12,13,14,31,4.80
2015,12,13,14,32,3.20
2015,12,13,14,33,3.20
2015,12,13,14,34,4.80
2015,12,13,14,35,6.40
2015,12,13,14,36,4.80
2015,12,13,14,37,4.80
2015,12,13,14,38,6.40
2015,12,13,14,39,4.80
2015,12,13,14,40,3.20
2015,12,13,14,41,3.20
2015,12,13,14,42,3.20
2015,12,13,14,44,1.60
2015,12,13,14,45,3.20
2015,12,13,14,46,4.80
2015,12,13,14,47,4.80
2015,12,13,14,48,8.10
2015,12,13,14,49,3.20
2015,12,13,14,50,4.80
2015,12,13,14,51,8.10
2015,12,13,14,52,8.10
2015,12,13,14,53,6.40
2015,12,13,14,54,3.20
2015,12,13,14,55,1.60
2015,12,13,14,56,4.80
2015,12,13,14,57,4.80
2015,12,13,14,58,4.80
2015,12,13,14,59,4.80
2015,12,13,15,00,4.80
2015,12,13,15,01,3.20
2015,12,13,15,06,1.60
2015,12,13,15,13,11.30
2015,12,13,15,14,8.10
2015,12,13,15,15,9.60
2015,12,13,15,16,4.80
2015,12,13,15,17,3.20
2015,12,13,15,18,4.80
2015,12,13,15,19,1.60
2015,12,13,15,21,4.80
2015,12,13,15,22,1.60
2015,12,13,15,25,3.20
2015,12,13,15,26,3.20
2015,12,13,15,27,4.80
2015,12,13,15,28,6.40
2015,12,13,15,29,4.80
2015,12,13,15,30,6.40
2015,12,13,15,31,9.60
2015,12,13,15,32,6.40
2015,12,13,15,33,3.20
2015,12,13,15,34,3.20
2015,12,13,15,35,1.60
2015,12,13,15,36,1.60
2015,12,13,15,37,4.80
2015,12,13,15,38,3.20
2015,12,13,15,39,3.20
2015,12,13,15,40,3.20
2015,12,13,15,41,1.60
2015,12,13,15,42,4.80
2015,12,13,15,43,3.20
2015,12,13,15,44,3.20
2015,12,13,15,45,3.20
2015,12,13,15,48,1.60
2015,12,13,15,49,3.20
2015,12,13,16,00,3.20
2015,12,13,16,01,3.20
2015,12,13,16,02,1.60
2015,12,13,16,03,1.60
2015,12,13,16,04,1.60
2015,12,13,16,05,1.60
2015,12,13,16,08,1.60
2015,12,13,16,09,4.80
2015,12,13,16,10,3.20
2015,12,13,16,11,3.20
2015,12,13,16,12,9.60
2015,12,13,16,13,8.10
2015,12,13,16,14,1.60
2015,12,13,16,16,4.80
2015,12,13,16,17,6.40
2015,12,13,16,18,6.40
2015,12,13,16,19,12.90
2015,12,13,16,20,6.40
2015,12,13,16,21,4.80
2015,12,13,16,22,4.80
2015,12,13,16,23,8.10
2015,12,13,16,24,8.10
2015,12,13,16,25,8.10
2015,12,13,16,26,4.80
2015,12,13,16,27,4.80
2015,12,13,16,28,11.30
2015,12,13,16,29,4.80
2015,12,13,16,30,4.80
2015,12,13,16,31,6.40
2015,12,13,16,32,8.10
2015,12,13,16,33,3.20
2015,12,13,16,34,6.40
2015,12,13,16,35,6.40
2015,12,13,16,36,3.20
2015,12,13,16,37,3.20
2015,12,13,16,38,1.60
2015,12,13,16,39,6.40
2015,12,13,16,40,4.80
2015,12,13,16,41,4.80
2015,12,13,16,42,8.10
2015,12,13,16,43,4.80
2015,12,13,16,44,6.40
2015,12,13,16,45,6.40
2015,12,13,16,46,9.60
2015,12,13,16,47,8.10
2015,12,13,16,48,3.20
2015,12,13,16,49,4.80
2015,12,13,16,50,6.40
2015,12,13,16,51,4.80
2015,12,13,16,52,4.80
2015,12,13,16,53,4.80
2015,12,13,16,54,8.10
2015,12,13,16,55,4.80
2015,12,13,16,56,8.10
2015,12,13,16,57,3.20
2015,12,13,16,58,3.20
2015,12,13,16,59,4.80
2015,12,13,17,00,1.60
2015,12,13,17,01,3.20
2015,12,13,17,02,1.60
2015,12,13,17,03,3.20
2015,12,13,17,04,4.80
2015,12,13,17,05,1.60
2015,12,13,17,06,3.20
2015,12,13,17,07,1.60
2015,12,13,17,08,6.40
2015,12,13,17,09,4.80
2015,12,13,17,10,11.30
2015,12,13,17,11,6.40
2015,12,13,17,12,4.80
2015,12,13,17,13,6.40
2015,12,13,17,14,4.80
2015,12,13,17,15,3.20
2015,12,13,17,16,6.40
2015,12,13,17,17,3.20
2015,12,13,17,18,4.80
2015,12,13,17,19,8.10
2015,12,13,17,20,4.80
2015,12,13,17,21,8.10
2015,12,13,17,22,4.80
2015,12,13,17,23,3.20
2015,12,13,17,24,3.20
2015,12,13,17,25,6.40
2015,12,13,17,26,6.40
2015,12,13,17,27,6.40
2015,12,13,17,28,6.40
2015,12,13,17,29,6.40
2015,12,13,17,30,12.90
2015,12,13,17,31,6.40
2015,12,13,17,32,9.60
2015,12,13,17,33,4.80
2015,12,13,17,34,11.30
2015,12,13,17,35,11.30
2015,12,13,17,36,8.10
2015,12,13,17,37,6.40
2015,12,13,17,38,9.60
2015,12,13,17,39,8.10
2015,12,13,17,40,11.30
2015,12,13,17,41,12.90
2015,12,13,17,42,16.10
2015,12,13,17,43,16.10
2015,12,13,17,44,9.60
2015,12,13,17,45,14.50
2015,12,13,17,46,8.10
2015,12,13,17,47,12.90
2015,12,13,17,48,14.50
2015,12,13,17,49,16.10
2015,12,13,17,50,6.40
2015,12,13,17,51,6.40
2015,12,13,17,52,14.50
2015,12,13,17,53,12.90
2015,12,13,17,54,9.60
2015,12,13,17,55,8.10
2015,12,13,17,56,8.10
2015,12,13,17,57,8.10
2015,12,13,17,58,8.10
2015,12,13,17,59,6.40
2015,12,13,18,00,8.10
2015,12,13,18,01,8.10
2015,12,13,18,02,4.80
2015,12,13,18,03,16.10
2015,12,13,18,04,12.90
2015,12,13,18,05,12.90
2015,12,13,18,06,8.10
2015,12,13,18,07,9.60
2015,12,13,18,08,8.10
2015,12,13,18,09,8.10
2015,12,13,18,10,4.80
2015,12,13,18,11,8.10
2015,12,13,18,12,11.30
2015,12,13,18,13,3.20
2015,12,13,18,14,1.60
2015,12,13,18,15,9.60
2015,12,13,18,16,6.40
2015,12,13,18,17,12.90
2015,12,13,18,18,6.40
2015,12,13,18,19,9.60
2015,12,13,18,20,3.20
2015,12,13,18,21,1.60
2015,12,13,18,22,3.20
2015,12,13,18,23,4.80
2015,12,13,18,24,6.40
2015,12,13,18,25,4.80
2015,12,13,18,26,4.80
2015,12,13,18,27,4.80
2015,12,13,18,28,3.20
2015,12,13,18,29,6.40
2015,12,13,18,30,6.40
2015,12,13,18,31,3.20
2015,12,13,18,32,4.80
2015,12,13,18,33,6.40
2015,12,13,18,34,4.80
2015,12,13,18,35,4.80
2015,12,13,18,36,3.20
2015,12,13,18,37,6.40
2015,12,13,18,38,6.40
2015,12,13,18,39,6.40
2015,12,13,18,40,4.80
2015,12,13,18,41,14.50
2015,12,13,18,42,12.90
2015,12,13,18,43,3.20
2015,12,13,18,44,1.60
2015,12,13,18,45,6.40
2015,12,13,18,46,6.40
2015,12,13,18,47,11.30
2015,12,13,18,48,16.10
2015,12,13,18,49,19.30
2015,12,13,18,50,14.50
2015,12,13,18,51,14.50
2015,12,13,18,52,11.30
2015,12,13,18,53,12.90
2015,12,13,18,54,14.50
2015,12,13,18,55,9.60
2015,12,13,18,56,9.60
2015,12,13,18,57,8.10
2015,12,13,18,58,17.70
2015,12,13,18,59,16.10
2015,12,13,19,00,16.10
2015,12,13,19,01,14.50
2015,12,13,19,02,12.90
2015,12,13,19,03,11.30
2015,12,13,19,04,8.10
2015,12,13,19,05,9.60
2015,12,13,19,06,8.10
2015,12,13,19,07,6.40
2015,12,13,19,08,14.50
2015,12,13,19,09,19.30
2015,12,13,19,10,8.10
2015,12,13,19,11,12.90
2015,12,13,19,12,12.90
2015,12,13,19,13,11.30
2015,12,13,19,14,16.10
2015,12,13,19,15,12.90
2015,12,13,19,16,8.10
2015,12,13,19,17,14.50
2015,12,13,19,18,14.50
2015,12,13,19,19,29.00
2015,12,13,19,20,19.30
2015,12,13,19,21,24.20
2015,12,13,19,22,17.70
2015,12,13,19,23,11.30
2015,12,13,19,24,16.10
2015,12,13,19,25,24.20
2015,12,13,19,26,3.20
2015,12,13,19,27,19.30
2015,12,13,19,28,17.70
2015,12,13,19,29,6.40
2015,12,13,19,30,8.10
2015,12,13,19,31,4.80
2015,12,13,19,32,1.60
2015,12,13,19,33,4.80
2015,12,13,19,34,16.10
2015,12,13,19,35,8.10
2015,12,13,19,36,4.80
2015,12,13,19,37,6.40
2015,12,13,19,38,12.90
2015,12,13,19,39,8.10
2015,12,13,19,40,6.40
2015,12,13,19,41,12.90
2015,12,13,19,42,6.40
2015,12,13,19,43,6.40
2015,12,13,19,44,9.60
2015,12,13,19,45,9.60
2015,12,13,19,46,9.60
2015,12,13,19,47,9.60
2015,12,13,19,48,12.90
2015,12,13,19,49,6.40
2015,12,13,19,50,4.80
2015,12,13,19,51,9.60
2015,12,13,19,52,4.80
2015,12,13,19,53,8.10
2015,12,13,19,54,8.10
2015,12,13,19,55,6.40
2015,12,13,19,56,6.40
2015,12,13,19,57,14.50
2015,12,13,19,58,12.90